Overview Statistics Trail Chart Weather Telemetry Raw packets
 

This is the latest recevied weather packets stored in our database for station/object N9BLE. If no packets are shown the sender has not sent any weather packets the latest 10 day(s).

<< 95 96 97 98 99 100 101 >>
Time Temp. Humidity Pressure Rain* Wind** Luminosity Snow
1777300906 13.33° C 90% 1012.4 hPa 0 mm - 87 W/m² -
1777300604 13.33° C 90% 1012 hPa 0 mm - 80 W/m² -
1777300301 13.33° C 90% 1012.4 hPa 0 mm - 83 W/m² -
1777299998 13.33° C 91% 1012.4 hPa 0 mm - 93 W/m² -
1777299694 13.33° C 91% 1012.3 hPa 0 mm - 79 W/m² -
1777299392 13.33° C 90% 1012.5 hPa 0 mm - 74 W/m² -
1777299090 12.78° C 90% 1012.7 hPa 0 mm - 94 W/m² -
1777298787 12.78° C 90% 1012.9 hPa 0 mm - 77 W/m² -
1777298483 12.78° C 90% 1012.9 hPa 0 mm - 43 W/m² -
1777298180 12.78° C 90% 1013.1 hPa 1.78 mm - 67 W/m² -
1777297875 12.78° C 89% 1013.1 hPa 1.78 mm - 64 W/m² -
1777297573 13.33° C 87% 1013.3 hPa 0 mm - 52 W/m² -
1777297269 13.89° C 82% 1013.3 hPa 0 mm - 22 W/m² -
1777296967 13.89° C 81% 1013.6 hPa 0 mm - 44 W/m² -
1777296664 13.89° C 81% 1013.7 hPa 0 mm - 38 W/m² -
1777296343 13.89° C 81% 1013.9 hPa 0 mm - 38 W/m² -
1777296039 13.89° C 81% 1013.7 hPa 0 mm - 41 W/m² -
1777295736 13.89° C 82% 1013.8 hPa 0 mm - 26 W/m² -
1777295434 13.33° C 82% 1013.4 hPa 0 mm - 40 W/m² -
1777295131 13.33° C 82% 1013.4 hPa 0 mm - 39 W/m² -
1777294829 13.89° C 81% 1013.4 hPa 0 mm - 47 W/m² -
1777294528 13.89° C 81% 1013.6 hPa 0 mm - 53 W/m² -
1777294225 13.89° C 81% 1013.1 hPa 0 mm - 83 W/m² -
1777293923 13.33° C 82% 1013 hPa 0 mm - 97 W/m² -
1777293618 13.33° C 83% 1013.1 hPa 0 mm - 73 W/m² -

* Rain latest hour (hover to see other rain measurements)
** Current wind speed in m/s (hover to see current wind gust speed)